EHI
0 0 0 0 0 0 0 0 0 1 3 6 7 6 5 7 12 16 16 15 15 15 17 24 29 30 29 26 23 23 21 18 14 10 7 4 1 0 0 0 1 4 5 5
0 0 0 0 0 0 0 1 1 3 5 7 8 6 4 6 10 13 16 17 18 17 17 22 28 31 31 27 24 23 21 17 12 9 8 6 5 3 1 0 1 3 4 4
0 0 0 0 0 0 1 2 3 5 7 9 8 6 5 7 9 10 13 17 18 18 19 22 27 32 33 30 26 24 21 16 12 10 10 10 10 8 5 2 1 2 3 3
0 0 0 0 0 0 2 3 3 5 8 9 7 6 6 8 8 8 10 12 14 16 18 22 26 31 34 34 31 27 22 18 16 15 14 14 14 12 8 4 1 2 4 5
0 0 0 0 0 0 1 3 4 5 7 8 7 6 6 6 6 7 7 8 10 12 16 20 23 28 33 36 34 30 25 22 22 20 17 17 18 16 11 6 4 4 6 7
0 0 0 0 0 0 1 3 5 6 8 9 8 6 6 6 6 6 6 7 10 12 15 18 19 24 31 34 33 30 27 25 24 22 20 20 19 17 14 9 6 7 7 7
0 0 0 0 0 0 1 2 5 7 9 10 9 8 8 9 8 8 8 8 10 12 14 16 17 22 27 31 31 29 27 24 22 21 21 20 19 17 14 10 9 8 7 6
0 0 0 0 0 0 0 2 5 7 9 10 10 11 12 12 12 11 11 10 10 11 12 14 17 20 24 28 28 27 24 23 21 19 19 19 18 15 12 10 8 7 6 6
0 0 0 0 0 0 0 2 6 8 9 10 12 13 14 14 14 13 12 12 11 12 12 13 16 18 21 24 25 24 23 22 20 17 16 17 16 13 10 8 7 7 6 5
0 0 0 0 0 0 0 2 6 8 9 12 13 13 14 14 13 11 10 11 12 12 13 14 16 17 18 21 22 21 20 20 18 15 14 15 14 12 9 8 8 8 8 7
0 0 0 0 1 1 2 3 5 7 9 12 13 13 13 12 11 9 8 9 11 12 12 13 14 15 16 18 20 19 17 15 14 13 12 12 12 10 9 9 9 9 9 8
0 0 0 0 1 2 3 3 4 6 8 10 12 11 11 10 10 8 6 6 8 9 9 9 11 13 14 16 17 16 13 12 11 11 10 10 10 10 8 8 7 6 6 6
0 0 0 0 1 3 3 3 4 6 8 9 9 9 8 8 8 7 5 3 4 5 6 6 8 10 11 12 13 13 11 10 10 10 10 10 10 10 8 5 4 2 2 2
0 0 0 0 2 3 3 3 4 6 8 7 7 6 6 6 6 5 4 2 2 3 4 5 6 7 8 8 10 11 10 9 9 9 9 9 10 10 8 5 3 1 1 0
0 0 0 0 1 2 3 3 2 3 5 5 4 4 4 3 3 3 3 2 1 1 3 4 4 4 5 5 6 7 8 7 7 8 7 7 8 9 8 7 5 3 2 1
0 0 0 0 0 1 1 1 1 1 1 2 2 2 2 1 1 2 3 3 1 1 2 3 3 3 3 3 4 5 5 5 5 5 5 5 6 7 7 6 4 3 3 3
0 0 0 0 0 0 0 0 0 0 0 0 1 1 1 0 0 1 2 3 2 1 1 3 3 3 3 3 3 3 4 3 3 3 3 4 4 4 5 5 3 2 2 2
0 0 0 0 0 0 0 0 0 0 0 0 0 0 0 0 0 0 1 2 2 1 1 2 3 3 3 3 3 3 3 3 3 3 3 3 3 3 3 3 2 1 1 1
0 0 0 0 0 0 0 0 0 0 0 0 0 0 0 0 0 0 0 1 2 1 0 1 2 3 3 3 3 3 3 3 3 3 3 3 3 3 3 2 1 0 0 0
0 0 0 0 0 0 0 0 0 0 0 0 0 0 0 0 0 0 0 0 1 1 0 0 1 1 3 3 3 3 3 3 3 3 3 3 3 3 3 2 1 0 0 0
0 0 0 0 0 0 0 0 0 0 0 0 0 0 0 0 0 0 0 0 0 0 0 0 0 1 2 2 2 3 3 3 3 3 3 3 3 3 2 2 1 0 0 0
0 0 0 0 0 0 0 0 0 0 1 0 0 0 0 0 0 0 0 0 0 0 0 0 0 0 1 1 1 2 2 2 2 2 2 2 2 1 1 1 0 0 0 0
0 0 0 0 0 0 0 0 0 0 0 0 0 0 0 0 0 0 0 0 0 0 0 0 0 0 0 0 0 1 1 1 1 1 1 1 1 0 0 0 0 0 0 0
0 0 0 0 0 0 0 0 0 0 0 0 0 0 0 0 0 0 0 0 0 0 0 0 0 0 0 0 0 0 0 0 0 0 0 0 0 0 0 0 0 0 0 0
0 0 0 0 0 0 0 0 0 0 0 0 0 0 0 0 0 0 0 0 0 0 0 0 0 0 0 0 0 0 0 0 0 0 0 0 0 0 0 0 0 0 0 0
0 0 0 0 0 0 0 0 0 0 0 0 0 0 0 0 0 0 0 0 0 0 0 0 0 0 0 0 0 0 0 0 0 0 0 0 0 0 0 0 0 0 0 0
0 0 0 0 0 0 0 0 0 0 0 0 0 0 0 0 0 0 0 0 0 0 0 0 0 0 0 0 0 0 0 0 0 0 0 0 0 0 0 0 0 0 0 0
Wind_Speed
4 5 3 3 4 3 2 5 6 7 7 8 8 7 7 7 8 9 7 6 7 7 7 8 8 8 8 8 7 7 7 7 6 5 4 4 3 2 2 2 3 2 2 2
2 2 2 2 3 2 2 2 4 4 4 4 4 4 4 6 8 9 9 8 7 7 7 8 9 9 8 7 7 7 7 7 6 5 5 4 4 3 3 2 2 2 2 2
2 4 2 3 2 0 1 1 4 4 4 3 4 5 6 7 7 8 9 9 9 8 8 8 8 9 9 8 7 7 7 6 6 6 5 5 5 4 3 3 3 2 2 2
1 1 3 5 1 2 4 3 2 2 2 5 6 5 4 5 7 6 6 7 7 6 6 6 6 7 7 8 8 8 7 7 7 7 6 5 5 4 4 3 3 3 3 2
3 2 4 2 3 2 1 3 3 2 2 3 4 4 1 2 3 4 5 6 6 6 6 5 6 7 7 7 7 7 8 7 7 8 8 7 6 5 4 3 3 3 3 3
3 3 4 3 5 3 3 1 4 2 2 3 4 2 4 2 1 2 3 4 4 4 4 5 5 6 7 7 7 8 8 8 7 8 8 8 7 6 4 4 4 3 3 3
3 3 4 4 6 3 2 4 5 1 2 3 3 5 4 2 1 3 3 4 5 5 5 5 5 6 6 6 7 7 6 6 6 6 7 7 6 5 5 4 3 3 3 3
2 2 5 4 3 2 4 4 2 1 2 2 2 1 2 2 1 1 2 3 4 4 3 3 5 7 6 6 6 5 6 6 6 5 5 5 5 4 4 5 4 3 3 2
4 5 4 2 2 3 3 2 2 1 1 2 2 2 2 2 2 1 2 3 4 5 4 3 4 6 6 6 5 6 6 6 5 5 4 4 5 5 4 3 3 3 3 3
1 2 2 2 2 2 1 1 1 1 2 3 2 2 2 3 2 1 1 2 2 4 4 3 3 4 5 5 5 6 6 6 5 5 4 3 3 3 4 4 4 4 4 4
1 3 2 3 2 2 2 2 3 3 2 3 3 3 2 2 2 1 0 0 2 2 3 3 3 3 3 4 5 5 5 4 4 4 4 4 3 3 4 4 5 6 5 4
4 5 2 3 3 1 2 2 3 3 4 3 3 3 3 3 2 1 1 1 1 1 1 2 3 2 2 3 5 6 4 4 3 3 3 3 3 1 1 2 4 6 6 5
5 3 2 2 1 1 2 2 3 3 2 3 3 3 3 2 1 1 1 1 1 1 1 2 3 2 2 3 4 5 5 4 3 4 4 4 3 3 1 2 2 1 3 4
1 1 1 0 0 1 2 3 3 4 4 3 3 3 3 2 2 2 1 0 1 1 1 2 2 2 2 3 4 4 4 4 4 4 4 4 4 3 3 3 1 1 1 2
2 2 3 2 2 3 3 3 4 4 5 5 4 4 3 3 2 1 0 1 2 1 1 2 2 2 2 3 4 4 3 2 3 3 3 3 3 3 3 3 3 2 1 1
0 2 3 3 4 4 4 3 3 3 3 3 4 4 2 2 2 2 2 2 2 0 0 1 1 2 2 3 4 4 3 3 3 3 3 3 3 3 3 2 2 2 2 2
3 2 2 2 2 3 3 2 2 2 2 2 2 2 3 4 4 3 2 2 1 0 0 1 1 1 1 3 3 3 2 3 3 2 2 3 3 3 3 3 3 2 2 3
3 3 3 3 3 3 2 2 2 1 1 1 3 3 3 3 3 1 1 2 3 3 2 1 1 0 1 2 2 2 2 2 2 2 2 2 2 2 2 2 2 2 1 1
3 4 3 2 3 3 2 1 1 1 1 2 3 3 2 2 1 1 2 3 4 3 3 3 2 1 0 1 2 2 2 2 2 2 2 2 1 1 1 1 2 1 1 1
3 3 4 3 3 3 2 2 2 2 2 3 3 3 2 1 1 2 2 2 1 1 1 1 1 0 0 0 1 1 2 2 2 2 1 1 1 1 1 1 1 1 1 2
3 3 4 4 4 3 3 3 3 2 2 2 3 2 1 1 1 1 2 1 2 1 1 1 1 1 0 0 0 1 1 1 2 2 1 1 1 1 1 1 1 1 1 2
3 3 4 4 4 3 2 2 3 3 2 2 2 2 2 1 1 1 1 0 1 1 1 1 1 2 2 2 1 2 2 2 1 1 1 1 1 1 1 1 1 1 1 1
2 3 3 3 3 2 2 2 2 2 2 2 2 1 1 1 1 1 1 1 1 1 1 1 2 3 3 2 1 1 1 1 1 1 1 1 1 1 1 1 1 1 1 1
2 2 2 2 2 3 2 1 1 1 1 1 1 1 1 0 1 1 2 1 1 0 0 0 1 2 2 1 1 1 1 1 1 1 1 1 1 1 1 0 0 0 0 0
2 2 2 2 2 1 1 1 1 1 1 1 0 0 0 1 1 1 1 1 1 1 0 0 0 0 1 1 1 1 1 1 1 1 1 1 1 1 1 0 0 0 0 0
1 1 1 2 2 2 1 1 1 0 1 1 1 1 0 0 0 1 1 1 1 1 0 0 0 0 0 1 1 1 1 1 1 1 1 1 1 1 1 1 0 0 0 1
1 1 1 0 0 1 2 1 1 1 1 1 1 1 1 0 1 1 1 1 1 0 0 0 0 1 1 1 1 1 1 1 1 1 1 1 1 1 0 0 0 0 1 1
Wind_Direction
227 241 249 258 291 284 209 189 187 205 202 218 207 195 184 166 152 146 151 161 162 166 171 171 168 168 167 168 167 165 162 165 172 174 170 166 157 154 143 141 145 144 131 123
295 287 293 293 297 294 265 218 183 171 226 231 196 149 146 155 153 157 165 167 167 168 171 175 175 172 169 170 171 166 166 174 174 169 164 163 161 154 144 148 147 137 138 137
264 304 347 312 297 13 17 18 157 176 213 161 145 165 174 170 165 172 174 170 171 178 181 180 181 175 174 174 170 169 172 173 172 172 168 171 165 154 164 171 163 159 164 158
196 47 224 242 308 73 78 21 19 124 150 155 169 175 178 169 161 167 170 169 174 177 182 179 176 173 171 167 168 171 175 177 176 176 178 174 167 171 180 180 178 181 185 186
141 181 252 296 343 354 64 337 352 106 135 127 111 75 50 163 159 176 184 179 178 176 172 167 171 170 164 169 172 174 180 183 182 180 178 177 179 185 187 184 185 190 190 187
146 166 219 260 297 296 103 317 335 43 122 123 98 118 248 238 181 184 186 175 168 160 155 164 176 165 163 173 177 186 190 188 185 182 180 184 188 186 186 184 192 189 195 199
168 194 247 277 306 22 103 251 294 274 171 167 185 208 221 202 200 192 190 185 165 157 167 179 172 158 166 173 189 195 185 177 179 183 184 186 184 182 176 180 183 189 198 215
155 181 249 300 31 113 223 249 250 212 191 181 185 175 151 146 136 143 161 166 161 155 168 177 168 161 169 189 197 183 172 173 178 182 189 182 174 176 174 173 178 187 188 216
182 210 244 274 191 215 185 188 226 195 192 135 125 147 141 136 135 118 159 165 163 160 168 183 177 165 177 196 181 165 165 173 177 179 183 172 173 178 176 180 184 189 188 206
40 284 287 330 350 352 62 198 223 150 139 126 134 152 149 148 135 125 139 160 158 151 166 191 189 175 184 181 162 157 166 174 172 172 176 174 174 174 180 187 190 193 197 207
326 293 340 358 353 351 13 43 50 42 74 117 116 117 133 138 139 138 91 120 145 158 175 188 169 161 165 158 151 153 163 168 169 173 173 171 174 183 188 202 196 191 201 200
229 245 218 264 280 15 53 37 37 44 40 51 92 101 102 118 128 121 100 65 99 117 143 139 139 151 157 154 152 152 158 165 166 162 161 161 159 140 338 223 218 207 206 201
212 220 202 230 344 49 86 59 48 47 51 56 57 92 95 100 114 113 95 101 123 162 164 137 131 137 160 161 156 157 165 171 169 164 165 167 168 165 163 7 26 192 199 196
212 137 133 254 147 67 86 75 75 63 40 45 64 76 78 72 85 89 75 152 125 122 132 133 129 155 189 170 159 164 166 175 172 172 171 172 174 176 174 169 173 296 283 222
275 181 183 175 101 72 68 71 66 57 51 42 54 62 71 78 77 95 81 93 95 98 124 131 139 194 193 163 158 158 158 170 175 168 164 167 172 173 177 181 181 187 199 282
309 77 94 92 86 76 69 68 75 64 65 59 58 53 55 77 70 63 57 78 100 105 269 165 199 232 189 151 150 154 161 166 164 164 159 164 172 177 184 189 192 194 203 216
93 73 94 102 93 89 94 108 114 101 80 74 73 71 64 61 55 47 58 81 102 142 211 178 237 260 142 145 148 156 155 161 163 162 173 179 176 183 187 189 192 200 218 221
124 125 124 138 140 121 103 89 91 95 118 116 87 79 73 71 58 38 82 80 63 34 13 2 348 105 126 140 147 150 150 157 161 162 167 161 161 169 169 172 179 191 222 212
103 105 108 109 120 121 107 85 86 87 82 96 98 90 81 93 101 64 74 78 72 41 344 340 341 10 100 144 134 131 136 137 138 136 138 143 143 152 169 178 181 181 193 192
96 108 118 111 102 111 116 110 95 81 75 97 101 92 79 57 78 83 79 79 100 193 276 319 344 318 224 182 139 142 142 147 148 140 127 129 140 177 191 197 192 189 200 205
103 104 103 101 92 88 91 99 104 98 77 88 102 108 103 55 40 65 78 49 318 321 1 27 41 346 357 57 80 104 121 130 133 134 141 157 173 195 206 208 202 207 212 217
107 104 101 103 100 90 74 81 103 114 106 99 104 110 103 69 39 34 25 308 304 14 40 32 25 9 23 51 76 73 82 103 117 128 158 171 189 220 218 208 201 208 214 218
118 114 107 110 116 112 88 80 83 95 108 113 116 121 144 193 179 130 318 305 326 36 67 22 21 28 32 50 56 65 64 79 91 107 158 170 178 177 177 197 214 216 214 232
116 111 115 127 116 99 90 75 65 64 84 113 143 154 153 180 303 267 228 227 225 170 118 44 45 28 38 48 44 49 63 84 116 138 131 114 113 118 125 135 122 91 145 236
134 129 128 122 117 126 143 115 76 65 79 76 70 177 178 186 204 267 275 209 184 148 149 198 156 30 60 91 85 89 82 65 68 81 91 96 99 94 94 110 112 105 90 312
139 153 177 177 176 173 158 136 146 211 125 80 15 337 348 355 92 64 51 51 71 81 332 288 299 129 114 115 107 107 104 90 79 82 93 103 110 108 107 105 83 303 251 252
145 149 132 119 196 181 164 157 167 190 168 159 218 280 277 146 102 101 86 49 20 5 345 330 131 123 120 121 114 102 91 85 90 106 113 109 93 94 90 48 324 287 270 252